Theta_e
345 343 348 350 351 351 351 350 351 351 350 349 350 351 351 351 350 350 351 350 350 351 350 350 350 349 346 347 348 347 348 348 348 349 350 349 350 351 350 350 348 348 350
344 344 349 349 351 351 351 350 350 350 350 350 350 353 351 351 349 351 350 351 350 350 350 351 350 349 348 346 348 348 347 347 349 350 351 352 351 350 350 349 348 348 348
344 345 351 348 351 352 348 352 350 351 351 350 351 351 351 351 351 351 350 351 351 351 350 350 350 349 348 348 349 349 349 347 347 348 347 347 347 347 350 349 349 346 348
345 347 349 347 348 352 350 350 350 351 351 350 351 351 351 351 351 352 351 351 351 351 346 344 350 349 349 347 342 344 347 349 346 346 344 344 346 350 349 349 348 347 347
347 347 349 348 347 351 351 351 351 352 349 350 350 351 351 351 352 352 351 351 351 350 350 349 349 349 348 344 343 343 345 346 346 342 341 342 346 349 349 348 348 348 346
348 348 348 350 352 351 351 351 352 351 351 351 352 350 350 351 351 351 351 351 351 351 350 349 349 348 341 342 343 344 346 343 343 341 341 343 345 349 349 349 349 348 347
348 348 349 349 351 350 351 351 351 351 350 347 350 352 352 352 352 352 351 352 351 351 351 350 349 343 342 342 343 343 344 341 342 339 343 347 348 348 348 348 347 347 346
348 348 349 350 348 352 350 351 351 351 350 349 350 350 352 353 352 352 352 352 351 349 345 343 342 339 340 343 344 344 344 343 339 343 345 345 344 346 345 348 347 347 346
348 348 349 351 350 351 351 352 352 351 351 350 350 350 351 350 350 351 352 351 350 348 347 338 338 339 340 342 345 343 344 343 339 343 342 344 346 349 346 347 346 347 345
348 349 350 351 349 349 351 351 351 352 352 351 350 350 350 352 350 343 344 349 347 343 341 340 339 337 341 343 344 341 342 342 340 341 346 345 345 349 348 347 346 346 345
348 349 350 351 344 347 347 350 352 352 351 346 348 347 344 348 345 347 342 344 343 340 341 344 343 339 339 343 344 342 342 343 341 340 342 344 346 348 347 347 346 345 344
350 349 350 349 344 346 343 350 347 349 345 342 344 345 345 345 346 343 342 341 342 341 341 343 344 345 345 342 342 345 343 343 344 340 342 342 346 347 347 348 344 343 343
348 350 351 347 343 343 339 345 342 342 342 342 342 344 343 345 346 343 342 342 340 341 343 345 346 344 344 344 343 342 343 343 344 338 341 342 345 346 346 345 345 344 342
348 348 349 345 342 340 336 338 335 337 339 340 340 341 346 345 346 341 340 343 343 343 345 344 343 345 341 340 340 343 344 344 343 336 340 343 343 346 344 343 344 344 343
348 347 347 343 340 337 336 334 333 335 343 346 342 342 346 347 346 347 343 342 345 345 346 345 345 343 339 338 340 343 343 345 342 336 338 342 342 345 346 344 341 340 343
347 346 346 341 338 338 333 332 337 341 346 347 347 347 345 347 348 348 348 347 346 346 344 345 345 339 339 339 339 342 345 345 342 336 337 342 345 345 343 345 345 343 341
346 345 344 341 340 339 333 331 336 343 345 346 347 347 347 348 349 347 348 347 347 346 345 343 345 342 342 340 342 342 344 343 342 334 336 337 340 342 344 344 344 344 345
346 345 343 342 341 339 335 333 337 343 345 346 346 347 346 349 350 348 347 347 347 347 345 341 346 343 342 341 339 340 342 342 340 334 336 337 338 340 341 345 342 341 342
345 345 344 345 344 342 338 342 341 341 344 346 347 346 347 348 350 350 350 348 348 347 345 345 347 344 341 343 340 337 341 340 340 337 338 338 337 338 341 341 340 339 338
343 344 344 344 344 345 343 344 345 347 346 347 347 347 347 351 352 349 350 349 349 349 345 346 344 336 341 341 339 337 338 339 341 340 340 340 339 337 338 340 340 339 338
345 343 343 344 344 346 346 344 347 347 346 348 349 349 346 350 353 348 349 348 348 348 347 348 342 339 337 338 337 335 337 336 339 341 341 341 341 338 337 338 338 338 337
345 344 342 343 344 345 347 346 348 347 345 345 348 349 347 349 351 352 348 349 349 349 349 348 343 338 338 337 335 333 330 335 337 339 340 342 341 340 339 340 340 338 338
345 345 343 343 343 344 346 347 347 346 345 344 345 348 348 347 346 350 350 350 349 350 348 348 347 342 337 340 338 336 331 332 333 338 339 341 341 341 340 340 341 339 338
345 345 345 344 344 344 346 347 346 345 345 344 343 346 348 347 346 347 348 348 350 349 350 350 347 347 336 339 341 342 338 335 330 332 335 340 340 340 340 339 339 338 337
345 345 345 345 344 344 346 346 346 345 343 343 342 343 349 347 347 346 348 350 350 350 352 351 348 349 346 338 338 342 342 340 336 333 331 334 337 339 338 339 339 337 336
347 346 346 346 345 345 345 345 344 345 345 343 344 344 348 349 347 348 348 350 350 350 352 351 349 347 347 343 338 336 340 340 339 338 333 334 335 336 335 336 337 337 334
Wind_Speed
18 23 22 21 22 22 21 22 22 21 20 20 19 19 18 18 18 17 16 14 14 13 13 13 13 13 12 13 13 13 14 14 13 12 12 13 15 14 16 16 16 16 15
26 24 23 22 22 21 21 23 22 20 20 20 19 18 18 18 17 16 15 15 13 13 11 11 12 12 13 13 14 15 14 14 13 13 12 12 14 15 15 15 15 15 15
29 25 23 23 22 21 21 21 21 20 20 19 19 18 18 17 16 16 15 14 12 11 11 11 11 12 12 13 14 16 16 14 12 14 15 15 12 14 15 15 15 14 15
30 26 25 24 22 20 21 20 19 18 18 18 18 17 15 16 16 15 14 13 11 10 9 11 11 10 11 12 13 13 14 12 13 14 16 16 15 14 14 15 14 15 15
29 27 25 24 22 20 20 19 18 17 18 17 15 15 15 15 15 14 13 12 11 9 8 9 10 9 9 11 12 11 10 10 11 13 15 16 17 15 14 15 14 15 14
30 28 25 23 20 20 20 18 17 16 17 15 15 14 15 14 14 14 13 12 11 10 9 10 11 10 11 11 11 10 8 11 12 12 14 15 16 14 15 13 13 13 14
29 26 24 22 20 20 18 18 17 15 16 16 14 14 13 14 14 13 13 13 12 12 11 12 12 12 12 11 10 10 13 14 12 14 15 15 15 14 13 13 13 13 14
30 26 24 21 20 19 17 18 16 15 15 15 14 14 13 13 14 12 12 12 12 11 12 14 13 12 11 10 9 7 11 11 13 15 15 15 13 13 13 13 13 12 13
28 26 24 21 19 18 16 17 16 15 14 13 13 13 13 14 13 12 11 12 11 12 11 13 13 11 11 10 10 12 9 11 12 14 14 15 13 14 12 13 13 12 12
26 25 25 22 20 19 17 15 15 14 13 13 13 12 12 12 12 11 10 11 11 11 12 11 11 12 10 9 10 11 9 9 11 13 14 14 13 13 13 12 12 11 11
25 25 25 22 21 19 17 15 14 13 12 13 12 11 12 12 12 9 8 8 10 10 9 8 9 8 8 8 7 8 8 9 10 11 12 12 11 11 11 11 11 10 10
23 27 26 23 22 20 18 17 16 14 14 14 12 11 12 10 9 8 7 6 7 7 7 7 6 4 3 4 6 7 7 8 8 10 11 12 10 9 10 10 10 10 9
29 26 27 24 22 21 20 18 17 15 14 13 11 10 10 8 7 8 7 5 4 5 6 6 5 4 2 1 5 9 9 8 7 9 10 10 11 9 10 10 10 10 9
29 30 29 26 24 22 19 19 18 16 15 13 9 12 10 9 8 8 7 6 3 4 4 4 5 5 4 2 3 14 11 8 6 9 11 10 9 9 9 10 10 9 9
29 31 31 28 25 23 20 19 19 17 15 11 10 10 11 9 9 8 7 6 4 4 2 3 4 5 6 6 7 12 14 9 7 8 10 10 9 10 9 9 9 8 8
31 33 32 29 27 24 23 22 20 18 15 12 11 10 9 10 9 7 7 6 3 3 5 1 1 5 8 6 11 11 12 9 6 7 9 9 8 7 8 8 8 8 7
33 35 34 31 28 26 25 24 21 18 15 14 12 12 11 10 8 6 7 6 5 3 4 2 2 5 7 6 9 9 9 9 7 7 7 7 8 8 7 8 7 7 7
33 34 35 33 31 28 27 24 21 18 16 17 18 14 16 14 11 8 8 8 6 4 4 2 1 2 6 6 8 10 10 10 8 7 6 6 6 5 7 7 7 7 7
35 35 36 35 33 31 29 25 20 17 18 15 17 20 18 16 12 10 8 8 8 5 5 4 2 2 6 3 5 9 12 9 9 8 6 4 3 3 4 5 6 6 6
35 36 37 37 35 34 31 26 20 16 13 13 16 20 20 16 14 11 7 7 7 6 6 5 2 2 5 6 5 9 8 10 10 8 7 5 4 3 3 6 6 6 4
33 38 39 39 39 36 34 29 26 23 19 14 12 17 22 19 16 13 9 8 6 5 5 5 5 4 6 8 13 9 6 7 11 10 8 7 5 4 4 4 4 5 4
33 38 40 42 41 40 38 34 33 29 24 18 11 10 21 19 18 15 13 11 8 6 7 5 7 6 10 9 6 4 2 3 5 9 11 10 8 7 5 5 4 3 3
33 38 41 44 42 45 41 36 30 30 25 22 17 14 17 21 19 18 16 13 12 10 8 7 7 6 8 5 8 4 2 1 1 1 8 11 12 11 8 6 5 3 4
36 36 41 43 42 45 42 40 34 29 27 29 26 19 17 18 22 20 18 15 13 11 10 8 10 8 8 9 5 3 3 5 3 1 6 12 15 15 12 11 8 7 7
36 35 40 43 41 41 44 41 39 32 31 30 28 24 18 19 22 23 20 17 17 14 12 10 10 11 9 11 9 6 4 5 5 3 2 5 13 17 16 17 13 10 10
37 36 37 40 43 42 44 43 41 36 33 30 26 27 22 21 23 25 23 20 18 16 14 13 12 13 11 9 10 9 10 5 8 4 2 6 10 12 17 18 19 16 14
Wind_Direction
151 145 137 134 129 126 125 122 119 120 122 121 121 122 124 124 123 124 120 116 113 109 105 100 97 96 101 106 105 105 108 109 109 110 111 118 116 107 102 103 102 102 100
146 145 139 136 132 128 124 122 119 120 116 117 120 121 121 121 122 121 117 114 111 110 108 101 97 94 96 104 106 107 106 110 109 110 105 115 115 110 106 106 107 103 99
144 144 140 138 132 128 127 120 118 118 117 119 119 119 120 122 123 119 117 116 115 115 114 107 104 98 99 108 114 114 111 104 109 108 106 116 115 111 108 109 109 111 106
145 145 141 139 136 130 126 122 119 119 118 119 118 119 121 119 119 119 122 121 118 114 109 103 98 98 102 107 111 113 113 113 107 112 109 110 108 109 112 111 111 107 108
145 145 143 142 137 134 129 126 124 121 120 116 121 119 122 118 116 116 115 114 113 114 108 100 101 100 105 107 108 112 113 124 132 118 116 116 113 112 113 111 113 112 112
146 145 148 141 140 136 132 128 129 126 125 122 123 121 119 115 115 115 116 113 109 109 103 102 104 105 105 98 95 103 100 117 134 123 126 120 114 119 116 116 115 114 116
146 147 148 146 144 138 134 132 133 130 128 127 122 121 121 118 116 119 117 113 108 101 97 101 107 111 109 112 107 107 117 120 123 125 129 125 127 122 122 120 122 121 120
146 150 151 149 146 139 143 138 137 134 132 129 128 124 122 122 121 121 119 114 108 103 95 94 103 115 116 109 90 108 134 130 132 132 130 127 124 127 125 124 124 125 124
149 152 154 151 148 148 146 144 141 141 135 131 129 127 131 128 124 122 120 115 110 103 97 91 92 96 120 112 98 109 132 136 133 133 129 128 130 129 129 130 126 128 128
155 159 156 157 158 156 151 149 148 147 141 138 134 135 136 129 126 125 125 121 113 103 96 91 88 91 98 115 111 121 124 136 144 140 138 134 138 138 137 134 134 131 134
166 164 162 164 166 160 155 155 154 152 147 140 138 142 145 145 143 134 126 120 115 103 92 82 80 88 108 119 117 103 134 139 153 148 142 138 140 137 137 138 134 132 127
170 172 171 172 171 167 164 161 161 158 158 149 148 146 147 150 148 139 137 125 117 119 111 94 94 99 102 129 162 149 158 155 161 159 154 151 142 134 135 132 131 129 128
174 175 178 179 178 175 174 170 167 168 168 164 166 164 164 166 163 158 153 143 136 128 113 103 89 85 100 131 169 184 161 148 162 167 159 149 151 150 145 142 137 133 133
176 181 181 185 185 184 183 179 173 178 177 172 172 179 180 181 179 173 171 172 163 128 113 81 73 91 66 33 119 176 175 186 179 171 166 162 160 161 154 151 147 147 145
178 184 185 189 191 189 190 187 184 185 182 182 181 174 187 189 190 182 179 189 186 201 244 66 60 61 85 103 112 161 174 184 184 173 175 174 168 175 164 157 156 155 151
182 187 188 192 194 192 193 191 188 190 189 192 197 198 187 197 210 189 183 188 190 203 220 321 55 108 106 138 137 147 173 179 184 180 183 174 175 185 170 172 170 160 166
187 189 190 193 196 197 196 195 196 199 207 214 217 213 209 201 200 195 195 179 169 158 143 136 100 127 126 116 150 159 168 184 194 187 180 168 180 192 188 181 184 188 191
187 190 193 194 198 199 202 201 203 210 220 235 230 219 215 207 194 197 192 190 168 145 157 199 267 99 137 111 158 177 185 190 192 186 171 170 171 176 182 191 190 197 203
192 194 196 198 200 200 204 209 212 222 235 239 225 218 211 203 197 203 194 194 189 190 186 218 231 226 210 177 164 189 200 183 188 186 172 165 168 178 176 181 194 196 208
195 200 200 203 206 204 206 211 214 210 209 209 214 209 206 203 201 197 190 197 190 204 170 194 137 108 156 162 157 167 188 207 199 200 185 175 174 154 179 176 184 197 219
195 201 202 204 210 209 210 212 208 201 199 199 204 217 206 207 203 202 196 200 202 215 187 167 167 175 145 161 128 111 93 199 212 216 210 202 198 182 185 189 182 187 194
196 198 201 207 209 213 211 212 209 211 209 211 207 199 207 211 213 214 210 212 208 208 202 182 172 151 131 146 150 121 23 47 216 228 223 219 220 214 213 205 209 193 186
197 198 200 205 208 213 212 210 213 219 219 216 213 205 207 218 222 219 218 219 225 223 213 201 194 180 161 155 162 151 90 201 21 300 225 230 227 225 225 227 225 212 217
198 201 202 205 205 209 209 210 211 214 216 223 224 217 214 221 222 222 223 223 222 212 217 220 211 206 193 174 164 193 168 147 148 334 244 242 235 229 230 234 228 233 228
197 196 202 204 204 205 207 208 213 214 221 224 228 226 223 222 220 223 225 227 222 227 225 221 220 215 205 200 193 178 177 184 170 139 220 232 227 226 236 237 239 239 235
196 192 197 197 203 203 206 207 213 216 218 218 222 221 226 227 222 223 227 230 231 229 221 226 229 220 217 214 219 223 216 190 204 180 161 223 224 232 234 239 238 235 237